This demonstration page uses our WeatherBlox Daily Observations layout. Learn more.

Left ArrowRight Arrow

Hourly Observations for July 22, 2019

Temp ( °F °C ) Dew Point ( °F °C ) Humidity (%) Winds ( mph kmh ) Pressure ( in mb ) Visibility ( mi km ) Precip ( " mm )
12:56 am 00:56 Cloudy 64 17.8 58 14.4 81 81 N 9 15 30.21 1023 10 16 0.00 0.00
1:56 am 01:56 Partly Cloudy 64 17.8 61 16.1 90 90 N 7 11 30.22 1023 10 16 0.00 0.00
2:56 am 02:56 Clear 63 17.2 60 15.6 90 90 NNW 8 13 30.23 1024 10 16 0.00 0.00
3:56 am 03:56 Clear 61 16.1 59 15 93 93 NNW 6 9 30.23 1024 10 16 0.00 0.00
4:56 am 04:56 Clear 60 15.6 58 14.4 93 93 N 9 15 30.23 1024 10 16 0.00 0.00
5:56 am 05:56 Clear 59 15 56 13.3 90 90 N 8 13 30.25 1024 10 16 0.00 0.00
6:56 am 06:56 Sunny 59 15 56 13.3 90 90 N 8 13 30.27 1025 10 16 0.00 0.00
7:56 am 07:56 Sunny 61 16.1 58 14.4 90 90 NNE 8 13 30.29 1026 10 16 0.00 0.00
8:56 am 08:56 Sunny 65 18.3 58 14.4 78 78 NNE 5 7 30.31 1026 10 16 0.00 0.00
9:56 am 09:56 Sunny 68 20 59 15 73 73 NNE 8 13 30.31 1026 10 16 0.00 0.00
11:56 am 11:56 Sunny 73 22.8 58 14.4 59 59 NNE 13 20 30.30 1026 10 16 0.00 0.00
12:56 pm 12:56 Sunny 74 23.3 59 15 60 60 NNE 14 22 30.30 1026 10 16 0.00 0.00
1:56 pm 13:56 Sunny 75 23.9 58 14.4 55 55 NNE 10 17 30.29 1026 10 16 0.00 0.00
2:56 pm 14:56 Mostly Sunny 76 24.4 58 14.4 54 54 NNE 12 19 30.28 1025 10 16 0.00 0.00
3:56 pm 15:56 Mostly Sunny 76 24.4 57 13.9 52 52 NNE 16 26 30.27 1025 10 16 0.00 0.00
4:56 pm 16:56 Partly Cloudy 76 24.4 57 13.9 52 52 NNE 13 20 30.26 1025 10 16 0.00 0.00
5:56 pm 17:56 Mostly Sunny 75 23.9 57 13.9 54 54 NE 9 15 30.26 1025 10 16 0.00 0.00
6:56 pm 18:56 Mostly Sunny 74 23.3 57 13.9 56 56 NE 12 19 30.25 1024 10 16 0.00 0.00
7:56 pm 19:56 Sunny 72 22.2 58 14.4 61 61 NE 7 11 30.26 1025 10 16 0.00 0.00
8:56 pm 20:56 Sunny 69 20.6 61 16.1 76 76 ENE 5 7 30.27 1025 10 16 0.00 0.00
9:56 pm 21:56 Clear 66 18.9 60 15.6 81 81 ENE 3 6 30.28 1025 10 16 0.00 0.00
10:56 pm 22:56 Clear 67 19.4 59 15 76 76 Calm 30.29 1026 10 16 0.00 0.00
11:56 pm 23:56 Clear 65 18.3 59 15 81 81 Calm 30.30 1026 10 16 0.00 0.00

Powered by AerisWeather